CW6344 Weather Reports


time (UTC)temp
F
wind
direction
speed
knots
gust
knots
rain 1hr
in
rain 24hr
in
rain mn
in
humidity
%
barometer
mb
20260905140440 79 146 0.0 4.3 0.00 0.01 0.00 82 1011.8
20260905135410 79 282 0.0 0.0 0.00 0.01 0.00 83 1011.9
20260905134410 79 267 1.7 1.7 0.00 0.01 0.00 82 1011.9
20260905133410 78 242 0.0 0.0 0.00 0.01 0.00 84 1012.0
20260905132410 78 242 0.0 0.0 0.00 0.01 0.00 84 1011.8
20260905131410 78 186 0.0 0.0 0.00 0.01 0.00 83 1011.7
20260905130410 78 259 0.0 2.6 0.00 0.01 0.00 83 1011.7
20260905124410 77 284 0.0 0.0 0.00 0.01 0.00 84 1011.7
20260905123410 77 316 0.9 0.9 0.00 0.01 0.00 85 1011.7
20260905122410 77 5 0.0 0.0 0.00 0.01 0.00 85 1011.7
20260905121410 76 28 0.9 0.9 0.00 0.01 0.00 85 1011.7
20260905120410 76 269 0.0 0.0 0.00 0.01 0.00 86 1011.6
20260905115410 76 269 0.0 0.9 0.00 0.01 0.00 86 1011.7
20260905114410 76 299 0.0 0.0 0.00 0.01 0.00 86 1011.5
20260905112410 75 323 0.0 0.0 0.00 0.01 0.00 88 1011.3
20260905110410 74 333 0.0 0.0 0.00 0.01 0.00 89 1011.1
20260905105410 73 338 0.0 0.0 0.00 0.01 0.00 90 1011.0
20260905104410 73 321 0.0 0.0 0.00 0.01 0.00 90 1011.1
20260905103410 73 307 0.0 3.5 0.00 0.01 0.00 90 1010.9
20260905102510 73 302 0.0 0.0 0.00 0.01 0.00 90 1010.8
20260905101410 73 302 0.0 0.0 0.00 0.01 0.00 90 1010.7
20260905100410 73 302 0.0 0.0 0.00 0.01 0.00 89 1010.7
20260905095410 73 302 0.0 0.0 0.00 0.01 0.00 88 1010.6
20260905094410 74 302 0.0 0.0 0.00 0.01 0.00 88 1010.5
20260905093410 74 302 0.0 0.9 0.00 0.01 0.00 88 1010.5
20260905092410 74 303 0.0 2.6 0.00 0.01 0.00 87 1010.5
20260905091410 74 209 0.0 0.0 0.00 0.01 0.00 88 1010.5
20260905090410 74 269 0.0 0.0 0.00 0.01 0.00 88 1010.5
20260905085410 74 269 0.0 0.0 0.00 0.01 0.00 88 1010.5
20260905084410 74 269 0.0 0.9 0.00 0.01 0.00 88 1010.5
20260905083410 74 273 0.0 2.6 0.00 0.01 0.00 88 1010.6
20260905082410 74 292 0.0 4.3 0.00 0.01 0.00 89 1010.8
20260905081410 74 254 0.0 0.0 0.00 0.01 0.00 89 1010.7
20260905080410 74 256 0.0 0.0 0.00 0.01 0.00 90 1010.8
20260905075410 74 303 0.0 0.9 0.00 0.01 0.00 90 1010.9
20260905074410 74 291 0.9 1.7 0.00 0.01 0.00 91 1010.8
20260905073410 74 279 0.0 0.9 0.00 0.01 0.00 91 1010.9
20260905072411 74 185 0.0 0.0 0.00 0.01 0.00 91 1011.0
20260905070411 74 185 0.0 0.0 0.00 0.01 0.00 91 1010.9
20260905065411 74 204 0.0 0.0 0.00 0.01 0.00 91 1011.1
20260905064441 74 207 0.0 0.0 0.00 0.01 0.00 91 1011.2
20260905063411 74 206 0.0 0.0 0.00 0.01 0.00 91 1011.3
20260905062411 75 196 0.0 1.7 0.00 0.01 0.00 90 1011.2
20260905061411 75 246 0.0 0.0 0.00 0.01 0.00 90 1011.2
20260905060411 75 246 0.0 0.0 0.00 0.03 0.00 89 1011.2
20260905054511 75 245 0.0 0.0 0.00 0.07 0.00 89 1011.5
20260905053410 75 207 0.0 0.9 0.00 0.25 0.00 89 1011.7
20260905052411 75 209 0.0 0.9 0.00 0.51 0.00 89 1011.8
20260905051411 75 223 0.0 0.9 0.00 0.83 0.00 88 1011.9
20260905050411 75 221 0.0 0.0 0.00 1.31 0.00 88 1012.0
20260905044441 76 229 0.0 0.9 0.00 1.46 0.00 88 1012.2
20260905043411 75 225 0.0 1.7 0.00 1.46 0.00 89 1012.1
20260905042411 76 278 0.0 0.0 0.00 1.46 0.00 89 1012.2
20260905041411 76 278 0.0 1.7 0.00 1.53 0.00 89 1012.3
20260905040511 76 198 0.0 0.0 0.00 1.60 1.60 89 1012.4
20260905034411 76 198 0.0 0.0 0.00 1.62 1.60 88 1012.4
20260905033411 76 198 0.0 0.0 0.00 1.62 1.60 87 1012.4
20260905032411 75 198 0.0 0.0 0.00 1.62 1.60 86 1012.3
20260905030411 76 198 0.0 0.0 0.00 1.62 1.60 87 1012.3
20260905024411 76 198 0.0 0.0 0.00 1.62 1.60 84 1012.6
20260905023411 76 198 0.0 0.0 0.00 1.62 1.60 85 1012.7
20260905022411 76 198 0.0 0.0 0.00 1.62 1.60 85 1012.8
20260905021411 76 198 0.0 0.0 0.00 1.62 1.60 85 1012.8
20260905020411 76 198 0.0 0.0 0.00 1.62 1.60 85 1012.5
20260905015411 76 198 0.0 0.0 0.00 1.62 1.60 86 1012.5
20260905014411 76 198 0.0 0.0 0.00 1.62 1.60 85 1012.3
20260905013411 76 198 0.0 0.0 0.00 1.62 1.60 85 1012.4
20260905012411 76 198 0.0 0.0 0.00 1.62 1.60 85 1012.5
20260905011411 77 198 0.0 0.0 0.00 1.62 1.60 84 1012.3
20260905010411 77 198 0.0 0.0 0.00 1.62 1.60 84 1012.1
20260905005411 77 198 0.0 0.0 0.00 1.62 1.60 83 1012.3
20260905004441 77 198 0.0 0.0 0.00 1.62 1.60 83 1012.2
20260905003411 77 199 0.0 0.9 0.00 1.62 1.60 82 1012.5
20260905002411 76 199 0.0 2.6 0.00 1.62 1.60 84 1012.3
20260905001411 76 279 0.0 0.0 0.00 1.62 1.60 85 1012.1
20260905000411 76 279 0.0 0.0 0.00 1.62 1.60 86 1011.8
20260904235411 76 279 0.0 0.0 0.00 1.62 1.60 86 1011.7
20260904234411 76 279 0.0 0.0 0.00 1.62 1.60 87 1011.7
20260904233411 77 279 0.0 0.0 0.00 1.62 1.60 86 1011.4
20260904232411 77 279 0.0 0.0 0.01 1.62 1.60 83 1011.4
20260904231411 78 279 0.0 0.0 0.01 1.62 1.60 80 1011.3
20260904230411 78 279 0.0 0.0 0.01 1.62 1.60 80 1011.5
20260904224411 80 274 0.0 0.0 0.01 1.62 1.60 78 1011.6
20260904223411 81 254 0.9 2.6 0.01 1.62 1.60 78 1012.1
20260904222411 82 260 0.0 2.6 0.00 1.61 1.59 81 1012.5
20260904221411 82 248 0.0 2.6 0.00 1.61 1.59 80 1012.6
20260904220411 82 202 0.0 0.0 0.00 1.61 1.59 82 1012.8
20260904215411 82 202 0.0 0.9 0.00 1.61 1.59 84 1012.9
20260904214411 83 202 0.0 0.0 0.00 1.61 1.59 82 1012.7
20260904213411 83 202 0.0 0.0 0.00 1.61 1.59 81 1012.7
20260904212441 83 202 0.0 0.0 0.00 1.61 1.59 83 1012.4
20260904211411 84 202 0.0 0.0 0.00 1.61 1.59 81 1012.2
20260904210411 84 202 0.0 0.0 0.00 1.61 1.59 79 1012.5
20260904204441 84 198 0.0 0.0 0.00 1.61 1.59 79 1012.2
20260904203411 85 198 0.0 0.0 0.00 1.61 1.59 80 1012.4
20260904202541 85 198 0.0 0.0 0.00 1.61 1.59 75 1012.2
20260904201411 87 198 0.0 0.0 0.00 1.61 1.59 73 1012.2
20260904200411 88 196 0.0 0.0 0.00 1.61 1.59 70 1012.3
20260904195411 89 269 0.0 1.7 0.00 1.61 1.59 69 1012.5
20260904194411 90 269 1.7 1.7 0.00 1.61 1.59 65 1012.4
20260904193411 90 269 0.0 1.7 0.00 1.61 1.59 67 1012.5
20260904192411 90 281 0.0 2.6 0.00 1.61 1.59 67 1012.6
20260904191411 90 346 0.0 1.7 0.00 1.61 1.59 63 1012.7
20260904190411 89 246 0.9 1.7 0.00 1.61 1.59 65 1012.8
20260904185411 89 302 0.9 2.6 0.00 1.61 1.59 63 1013.0
20260904184411 88 293 0.0 0.0 0.00 1.61 1.59 72 1013.2
20260904182411 88 293 0.0 2.6 0.00 1.61 1.59 71 1013.4
20260904181411 88 299 0.0 0.9 0.00 1.61 1.59 76 1013.5
20260904180411 87 297 0.0 0.9 0.00 1.61 1.59 73 1013.5
20260904175411 86 287 0.0 0.0 0.00 1.61 1.59 75 1013.6
20260904174411 86 350 0.0 2.6 0.00 1.61 1.59 74 1013.7
20260904172441 86 310 2.6 2.6 0.00 1.61 1.59 76 1013.8
20260904171411 86 331 0.0 0.9 0.00 1.61 1.59 73 1013.7
20260904170441 86 282 0.0 0.9 0.00 1.61 1.59 76 1013.7
20260904165411 86 279 0.0 0.0 0.00 1.61 1.59 78 1013.8
20260904164441 87 274 0.0 0.9 0.00 1.61 1.59 73 1013.8
20260904163411 86 264 1.7 2.6 0.00 1.61 1.59 73 1013.9
20260904162411 86 12 0.9 2.6 0.00 1.61 1.59 73 1014.0
20260904161412 85 265 0.0 1.7 0.00 1.61 1.59 75 1014.0
20260904160511 85 265 0.0 2.6 0.00 1.61 1.59 76 1014.2
20260904155411 85 252 1.7 1.7 0.00 1.61 1.59 75 1014.3
20260904154411 84 244 0.0 0.9 0.00 1.61 1.59 77 1014.3
20260904153411 83 137 0.0 0.9 0.00 1.61 1.59 78 1014.4
20260904152411 83 245 0.0 1.7 0.00 1.61 1.59 79 1014.4
20260904151416 83 222 0.0 0.0 0.00 1.61 1.59 78 1014.3
20260904150411 83 287 0.0 1.7 0.00 1.61 1.59 80 1014.3
20260904145411 82 277 0.0 0.9 0.00 1.61 1.59 78 1014.3
20260904144411 82 346 0.0 0.0 0.00 1.61 1.59 81 1014.4
20260904143411 82 248 0.9 2.6 0.00 1.61 1.59 81 1014.5
20260904142411 81 258 0.0 2.6 0.00 1.61 1.59 81 1014.6
20260904141412 81 211 0.0 0.0 0.00 1.61 1.59 84 1014.5